Time,TemperatureF,DewpointF,PressureIn,WindDirection,WindDirectionDegrees,WindSpeedMPH,WindSpeedGustMPH,Humidity,HourlyPrecipIn,Conditions,Clouds,dailyrainin,SoftwareType,DateUTC
2013-08-23 00:00:00,66.4,65.2,30.06,NE,53,0.0,0.0,96,0.00,,,0.00,WeatherCatV1.20B785,2013-08-23 04:00:00,
2013-08-23 00:01:00,66.4,65.2,30.06,NE,53,0.0,0.0,96,0.00,,,0.00,WeatherCatV1.20B785,2013-08-23 04:01:00,
2013-08-23 00:06:00,66.3,65.1,30.06,NE,53,0.0,0.0,96,0.00,,,0.00,WeatherCatV1.20B785,2013-08-23 04:06:00,
2013-08-23 00:11:00,66.3,65.1,30.06,NE,53,0.0,0.0,96,0.00,,,0.00,WeatherCatV1.20B785,2013-08-23 04:11:00,
2013-08-23 00:16:00,66.3,65.1,30.06,NE,53,0.0,0.0,96,0.00,,,0.00,WeatherCatV1.20B785,2013-08-23 04:16:00,
2013-08-23 00:21:00,66.1,64.9,30.05,NE,53,0.0,0.0,96,0.00,,,0.00,WeatherCatV1.20B785,2013-08-23 04:21:00,
2013-08-23 00:26:00,66.0,64.8,30.05,NE,53,0.0,0.0,96,0.00,,,0.00,WeatherCatV1.20B785,2013-08-23 04:26:00,
2013-08-23 00:31:00,66.0,64.8,30.05,NE,53,0.0,0.0,96,0.00,,,0.00,WeatherCatV1.20B785,2013-08-23 04:31:00,
2013-08-23 00:36:00,65.9,64.7,30.05,NE,53,0.0,0.0,96,0.00,,,0.00,WeatherCatV1.20B785,2013-08-23 04:36:00,
2013-08-23 00:41:00,65.6,64.4,30.05,NE,53,0.0,0.0,96,0.00,,,0.00,WeatherCatV1.20B785,2013-08-23 04:41:00,
2013-08-23 00:46:00,65.5,64.3,30.05,NE,53,0.0,0.0,96,0.00,,,0.00,WeatherCatV1.20B785,2013-08-23 04:46:00,
2013-08-23 00:51:00,65.5,64.6,30.05,NE,53,0.0,0.0,97,0.00,,,0.00,WeatherCatV1.20B785,2013-08-23 04:51:00,
2013-08-23 00:56:00,65.4,64.5,30.05,NE,53,0.0,0.0,97,0.00,,,0.00,WeatherCatV1.20B785,2013-08-23 04:56:00,
2013-08-23 01:01:00,65.3,64.4,30.05,NE,53,0.0,0.0,97,0.00,,,0.00,WeatherCatV1.20B785,2013-08-23 05:01:00,
2013-08-23 01:06:00,65.2,64.3,30.05,NE,53,0.0,0.0,97,0.00,,,0.00,WeatherCatV1.20B785,2013-08-23 05:06:00,
2013-08-23 01:11:00,65.2,64.3,30.05,NE,53,0.0,0.0,97,0.00,,,0.00,WeatherCatV1.20B785,2013-08-23 05:11:00,
2013-08-23 01:16:00,65.1,64.2,30.04,NE,53,0.0,0.0,97,0.00,,,0.00,WeatherCatV1.20B785,2013-08-23 05:16:00,
2013-08-23 01:21:00,65.1,64.2,30.04,NE,53,0.0,0.0,97,0.00,,,0.00,WeatherCatV1.20B785,2013-08-23 05:21:00,
2013-08-23 01:26:00,65.1,64.2,30.04,NE,53,0.0,0.0,97,0.00,,,0.00,WeatherCatV1.20B785,2013-08-23 05:26:00,
2013-08-23 01:31:00,65.1,64.2,30.04,NE,53,0.0,0.0,97,0.00,,,0.00,WeatherCatV1.20B785,2013-08-23 05:31:00,
2013-08-23 01:36:00,65.1,64.2,30.04,NE,53,0.0,0.0,97,0.00,,,0.00,WeatherCatV1.20B785,2013-08-23 05:36:00,
2013-08-23 01:41:00,65.0,64.1,30.04,NE,53,0.0,0.0,97,0.00,,,0.00,WeatherCatV1.20B785,2013-08-23 05:41:00,
2013-08-23 01:46:00,64.9,63.7,30.04,NE,53,0.0,0.0,96,0.00,,,0.00,WeatherCatV1.20B785,2013-08-23 05:46:00,
2013-08-23 01:51:00,64.7,63.8,30.03,NE,53,0.0,0.0,97,0.00,,,0.00,WeatherCatV1.20B785,2013-08-23 05:51:00,
2013-08-23 01:56:00,64.7,63.8,30.03,NE,53,0.0,0.0,97,0.00,,,0.00,WeatherCatV1.20B785,2013-08-23 05:56:00,
2013-08-23 02:01:00,64.7,63.8,30.03,NE,53,0.0,0.0,97,0.00,,,0.00,WeatherCatV1.20B785,2013-08-23 06:01:00,
2013-08-23 02:06:00,64.7,63.8,30.03,NE,53,0.0,0.0,97,0.00,,,0.00,WeatherCatV1.20B785,2013-08-23 06:06:00,
2013-08-23 02:11:00,64.6,63.7,30.03,NE,53,0.0,0.0,97,0.00,,,0.00,WeatherCatV1.20B785,2013-08-23 06:11:00,
2013-08-23 02:16:00,64.7,63.8,30.03,NE,53,0.0,0.0,97,0.00,,,0.00,WeatherCatV1.20B785,2013-08-23 06:16:00,
2013-08-23 02:21:00,64.6,63.7,30.03,NE,53,0.0,0.0,97,0.00,,,0.00,WeatherCatV1.20B785,2013-08-23 06:21:00,
2013-08-23 02:26:00,64.5,63.3,30.03,NE,53,0.0,0.0,96,0.00,,,0.00,WeatherCatV1.20B785,2013-08-23 06:26:00,
2013-08-23 02:31:00,64.3,63.1,30.02,NE,53,0.0,0.0,96,0.00,,,0.00,WeatherCatV1.20B785,2013-08-23 06:31:00,
2013-08-23 02:36:00,64.2,63.3,30.02,NE,53,0.0,0.0,97,0.00,,,0.00,WeatherCatV1.20B785,2013-08-23 06:36:00,
2013-08-23 02:41:00,64.1,63.2,30.02,NE,53,0.0,0.0,97,0.00,,,0.00,WeatherCatV1.20B785,2013-08-23 06:41:00,
2013-08-23 02:46:00,64.0,62.8,30.02,NE,53,0.0,0.0,96,0.00,,,0.00,WeatherCatV1.20B785,2013-08-23 06:46:00,
2013-08-23 02:51:00,63.7,62.5,30.02,NE,53,0.0,0.0,96,0.00,,,0.00,WeatherCatV1.20B785,2013-08-23 06:51:00,
2013-08-23 02:56:00,63.5,62.6,30.02,NE,53,0.0,0.0,97,0.00,,,0.00,WeatherCatV1.20B785,2013-08-23 06:56:00,
2013-08-23 03:01:00,63.6,62.7,30.01,NE,53,0.0,0.0,97,0.00,,,0.00,WeatherCatV1.20B785,2013-08-23 07:01:00,
2013-08-23 03:06:00,63.5,62.6,30.01,NE,53,0.0,0.0,97,0.00,,,0.00,WeatherCatV1.20B785,2013-08-23 07:06:00,
2013-08-23 03:11:00,63.5,62.6,30.01,NE,53,0.0,0.0,97,0.00,,,0.00,WeatherCatV1.20B785,2013-08-23 07:11:00,
2013-08-23 03:16:00,63.5,62.6,30.01,NE,53,0.0,0.0,97,0.00,,,0.00,WeatherCatV1.20B785,2013-08-23 07:16:00,
2013-08-23 03:21:00,63.5,62.6,30.01,NE,53,0.0,0.0,97,0.00,,,0.00,WeatherCatV1.20B785,2013-08-23 07:21:00,
2013-08-23 03:26:00,63.4,62.5,30.01,NE,53,0.0,0.0,97,0.00,,,0.00,WeatherCatV1.20B785,2013-08-23 07:26:00,
2013-08-23 03:31:00,63.4,62.5,30.01,NE,53,0.0,0.0,97,0.00,,,0.00,WeatherCatV1.20B785,2013-08-23 07:31:00,
2013-08-23 03:36:00,63.4,62.5,30.00,NE,53,0.0,0.0,97,0.00,,,0.00,WeatherCatV1.20B785,2013-08-23 07:36:00,
2013-08-23 03:41:00,63.4,62.5,30.00,NE,53,0.0,0.0,97,0.00,,,0.00,WeatherCatV1.20B785,2013-08-23 07:41:00,
2013-08-23 03:46:00,63.2,62.3,30.00,NE,53,0.0,0.0,97,0.00,,,0.00,WeatherCatV1.20B785,2013-08-23 07:46:00,
2013-08-23 03:51:00,63.2,62.3,30.00,NE,53,0.0,0.0,97,0.00,,,0.00,WeatherCatV1.20B785,2013-08-23 07:51:00,
2013-08-23 03:56:00,63.2,62.3,30.00,NE,53,0.0,0.0,97,0.00,,,0.00,WeatherCatV1.20B785,2013-08-23 07:56:00,
2013-08-23 04:01:00,63.1,62.2,30.00,NE,53,0.0,0.0,97,0.00,,,0.00,WeatherCatV1.20B785,2013-08-23 08:01:00,
2013-08-23 04:06:00,62.9,62.0,30.01,NE,53,0.0,0.0,97,0.00,,,0.00,WeatherCatV1.20B785,2013-08-23 08:06:00,
2013-08-23 04:11:00,62.8,61.9,30.01,NE,53,0.0,0.0,97,0.00,,,0.00,WeatherCatV1.20B785,2013-08-23 08:11:00,
2013-08-23 04:16:00,63.0,62.4,30.01,NE,53,0.0,0.0,98,0.00,,,0.00,WeatherCatV1.20B785,2013-08-23 08:16:00,
2013-08-23 04:21:00,63.0,62.4,30.01,NE,53,0.0,0.0,98,0.00,,,0.00,WeatherCatV1.20B785,2013-08-23 08:21:00,
2013-08-23 04:26:00,62.9,62.3,30.01,NE,53,0.0,0.0,98,0.00,,,0.00,WeatherCatV1.20B785,2013-08-23 08:26:00,
2013-08-23 04:31:00,62.9,62.3,30.01,NE,53,0.0,0.0,98,0.00,,,0.00,WeatherCatV1.20B785,2013-08-23 08:31:00,
2013-08-23 04:36:00,62.9,62.3,30.01,NE,53,0.0,0.0,98,0.00,,,0.00,WeatherCatV1.20B785,2013-08-23 08:36:00,
2013-08-23 04:41:00,63.0,62.4,30.01,NE,53,0.0,0.0,98,0.00,,,0.00,WeatherCatV1.20B785,2013-08-23 08:41:00,
2013-08-23 04:46:00,63.1,62.5,30.01,NE,53,0.0,0.0,98,0.00,,,0.00,WeatherCatV1.20B785,2013-08-23 08:46:00,
2013-08-23 04:51:00,63.1,62.5,30.01,NE,53,0.0,0.0,98,0.00,,,0.00,WeatherCatV1.20B785,2013-08-23 08:51:00,
2013-08-23 04:56:00,63.3,62.7,30.02,NE,53,0.0,0.0,98,0.00,,,0.00,WeatherCatV1.20B785,2013-08-23 08:56:00,
2013-08-23 05:01:00,63.4,62.8,30.02,NE,53,0.0,0.0,98,0.00,,,0.00,WeatherCatV1.20B785,2013-08-23 09:01:00,
2013-08-23 05:06:00,63.3,62.7,30.01,NE,53,0.0,0.0,98,0.00,,,0.00,WeatherCatV1.20B785,2013-08-23 09:06:00,
2013-08-23 05:11:00,63.3,62.7,30.01,NE,53,0.0,0.0,98,0.00,,,0.00,WeatherCatV1.20B785,2013-08-23 09:11:00,
2013-08-23 05:16:00,63.3,62.7,30.02,NE,53,0.0,0.0,98,0.00,,,0.00,WeatherCatV1.20B785,2013-08-23 09:16:00,
2013-08-23 05:21:00,63.2,62.6,30.02,NE,53,0.0,0.0,98,0.00,,,0.00,WeatherCatV1.20B785,2013-08-23 09:21:00,
2013-08-23 05:26:00,63.1,62.5,30.01,NE,53,0.0,0.0,98,0.00,,,0.00,WeatherCatV1.20B785,2013-08-23 09:26:00,
2013-08-23 05:31:00,62.9,62.3,30.02,NE,53,0.0,0.0,98,0.00,,,0.00,WeatherCatV1.20B785,2013-08-23 09:31:00,
2013-08-23 05:36:00,62.8,62.2,30.02,NE,53,0.0,0.0,98,0.00,,,0.00,WeatherCatV1.20B785,2013-08-23 09:36:00,
2013-08-23 05:41:00,62.7,62.1,30.02,NE,53,0.0,0.0,98,0.00,,,0.00,WeatherCatV1.20B785,2013-08-23 09:41:00,
2013-08-23 05:46:00,62.6,62.0,30.02,NE,53,0.0,0.0,98,0.00,,,0.00,WeatherCatV1.20B785,2013-08-23 09:46:00,
2013-08-23 05:51:00,62.5,61.9,30.02,NE,53,0.0,0.0,98,0.00,,,0.00,WeatherCatV1.20B785,2013-08-23 09:51:00,
2013-08-23 05:56:00,62.5,61.9,30.02,NE,53,0.0,0.0,98,0.00,,,0.00,WeatherCatV1.20B785,2013-08-23 09:56:00,
2013-08-23 06:01:00,62.5,61.9,30.02,NE,53,0.0,0.0,98,0.00,,,0.00,WeatherCatV1.20B785,2013-08-23 10:01:00,
2013-08-23 06:06:00,62.5,61.9,30.02,NE,53,0.0,0.0,98,0.00,,,0.00,WeatherCatV1.20B785,2013-08-23 10:06:00,
2013-08-23 06:11:00,62.6,62.0,30.02,NE,53,0.0,0.0,98,0.00,,,0.00,WeatherCatV1.20B785,2013-08-23 10:11:00,
2013-08-23 06:16:00,62.7,62.1,30.03,NE,53,0.0,0.0,98,0.00,,,0.00,WeatherCatV1.20B785,2013-08-23 10:16:00,
2013-08-23 06:21:00,62.7,62.1,30.03,NE,53,0.0,0.0,98,0.00,,,0.00,WeatherCatV1.20B785,2013-08-23 10:21:00,
2013-08-23 06:26:00,62.9,62.3,30.03,NE,53,0.0,0.0,98,0.00,,,0.00,WeatherCatV1.20B785,2013-08-23 10:26:00,
2013-08-23 06:31:00,63.1,62.8,30.03,NE,53,0.0,0.0,99,0.00,,,0.00,WeatherCatV1.20B785,2013-08-23 10:31:00,
2013-08-23 06:36:00,63.2,62.9,30.03,NE,53,0.0,0.0,99,0.00,,,0.00,WeatherCatV1.20B785,2013-08-23 10:36:00,
2013-08-23 06:41:00,63.3,63.0,30.03,NE,53,0.0,0.0,99,0.00,,,0.00,WeatherCatV1.20B785,2013-08-23 10:41:00,
2013-08-23 06:46:00,63.4,63.1,30.03,NE,53,0.0,0.0,99,0.00,,,0.00,WeatherCatV1.20B785,2013-08-23 10:46:00,
2013-08-23 06:51:00,63.5,63.2,30.03,NE,53,0.0,0.0,99,0.00,,,0.00,WeatherCatV1.20B785,2013-08-23 10:51:00,
2013-08-23 06:56:00,63.5,63.2,30.04,NE,53,0.0,0.0,99,0.00,,,0.00,WeatherCatV1.20B785,2013-08-23 10:56:00,
2013-08-23 07:01:00,63.6,63.3,30.04,NE,53,0.0,0.0,99,0.00,,,0.00,WeatherCatV1.20B785,2013-08-23 11:01:00,
2013-08-23 07:06:00,63.7,63.4,30.04,NE,53,0.0,0.0,99,0.00,,,0.00,WeatherCatV1.20B785,2013-08-23 11:06:00,
2013-08-23 07:11:00,63.8,63.5,30.03,NE,53,0.0,0.0,99,0.00,,,0.00,WeatherCatV1.20B785,2013-08-23 11:11:00,
2013-08-23 07:16:00,63.8,63.5,30.03,NE,53,0.0,0.0,99,0.00,,,0.00,WeatherCatV1.20B785,2013-08-23 11:16:00,
2013-08-23 07:21:00,63.9,63.6,30.04,NE,53,0.0,0.0,99,0.00,,,0.00,WeatherCatV1.20B785,2013-08-23 11:21:00,
2013-08-23 07:26:00,63.9,63.6,30.04,NE,53,0.0,0.0,99,0.00,,,0.00,WeatherCatV1.20B785,2013-08-23 11:26:00,
2013-08-23 07:31:00,63.9,63.6,30.04,NE,53,0.0,0.0,99,0.00,,,0.00,WeatherCatV1.20B785,2013-08-23 11:31:00,
2013-08-23 07:36:00,63.7,63.1,30.04,East,80,0.0,0.0,98,0.00,,,0.00,WeatherCatV1.20B785,2013-08-23 11:36:00,
2013-08-23 07:41:00,63.8,63.2,30.04,East,80,0.0,0.0,98,0.00,,,0.00,WeatherCatV1.20B785,2013-08-23 11:41:00,
2013-08-23 07:46:00,63.9,63.6,30.04,East,80,0.0,0.0,99,0.00,,,0.00,WeatherCatV1.20B785,2013-08-23 11:46:00,
2013-08-23 07:51:00,63.9,63.3,30.04,East,80,0.0,0.0,98,0.00,,,0.00,WeatherCatV1.20B785,2013-08-23 11:51:00,
2013-08-23 07:56:00,63.8,63.2,30.04,East,80,0.0,0.0,98,0.00,,,0.00,WeatherCatV1.20B785,2013-08-23 11:56:00,
2013-08-23 08:01:00,63.9,63.3,30.04,East,80,0.0,0.0,98,0.00,,,0.00,WeatherCatV1.20B785,2013-08-23 12:01:00,
2013-08-23 08:06:00,64.1,63.8,30.05,East,80,0.0,0.0,99,0.00,,,0.00,WeatherCatV1.20B785,2013-08-23 12:06:00,
2013-08-23 08:11:00,64.0,63.4,30.05,East,80,0.0,0.0,98,0.00,,,0.00,WeatherCatV1.20B785,2013-08-23 12:11:00,
2013-08-23 08:16:00,64.1,63.5,30.05,East,80,0.0,0.0,98,0.00,,,0.00,WeatherCatV1.20B785,2013-08-23 12:16:00,
2013-08-23 08:21:00,64.0,63.4,30.05,East,79,0.0,0.0,98,0.00,,,0.00,WeatherCatV1.20B785,2013-08-23 12:21:00,
2013-08-23 08:26:00,63.9,63.3,30.05,East,79,0.0,0.0,98,0.00,,,0.00,WeatherCatV1.20B785,2013-08-23 12:26:00,
2013-08-23 08:31:00,63.8,63.2,30.05,East,80,0.0,0.0,98,0.00,,,0.00,WeatherCatV1.20B785,2013-08-23 12:31:00,
2013-08-23 08:36:00,64.0,63.4,30.05,East,80,0.0,0.0,98,0.00,,,0.00,WeatherCatV1.20B785,2013-08-23 12:36:00,
2013-08-23 08:41:00,64.1,63.5,30.05,East,80,0.0,0.0,98,0.00,,,0.00,WeatherCatV1.20B785,2013-08-23 12:41:00,
2013-08-23 08:46:00,64.1,63.5,30.05,East,80,0.0,0.0,98,0.00,,,0.00,WeatherCatV1.20B785,2013-08-23 12:46:00,
2013-08-23 08:51:00,64.3,63.7,30.05,East,80,0.0,0.0,98,0.00,,,0.00,WeatherCatV1.20B785,2013-08-23 12:51:00,
2013-08-23 08:56:00,64.4,63.8,30.05,East,80,0.0,0.0,98,0.00,,,0.00,WeatherCatV1.20B785,2013-08-23 12:56:00,
2013-08-23 09:01:00,64.5,63.9,30.05,East,80,0.0,0.0,98,0.00,,,0.00,WeatherCatV1.20B785,2013-08-23 13:01:00,
2013-08-23 09:06:00,64.8,64.2,30.05,East,80,0.0,0.0,98,0.00,,,0.00,WeatherCatV1.20B785,2013-08-23 13:06:00,
2013-08-23 09:11:00,65.0,64.4,30.05,East,80,0.0,0.0,98,0.00,,,0.00,WeatherCatV1.20B785,2013-08-23 13:11:00,
2013-08-23 09:16:00,65.2,64.6,30.05,East,80,0.0,0.0,98,0.00,,,0.00,WeatherCatV1.20B785,2013-08-23 13:16:00,
2013-08-23 09:21:00,65.4,64.8,30.05,East,80,0.0,0.0,98,0.00,,,0.00,WeatherCatV1.20B785,2013-08-23 13:21:00,
2013-08-23 09:26:00,65.5,64.9,30.05,East,79,0.0,0.0,98,0.00,,,0.00,WeatherCatV1.20B785,2013-08-23 13:26:00,
2013-08-23 09:31:00,65.6,65.0,30.05,East,79,0.0,0.0,98,0.00,,,0.00,WeatherCatV1.20B785,2013-08-23 13:31:00,
2013-08-23 09:36:00,65.9,65.3,30.05,East,79,0.0,0.0,98,0.00,,,0.00,WeatherCatV1.20B785,2013-08-23 13:36:00,
2013-08-23 09:41:00,66.3,65.7,30.04,East,79,0.0,0.0,98,0.00,,,0.00,WeatherCatV1.20B785,2013-08-23 13:41:00,
2013-08-23 09:46:00,66.6,66.0,30.04,East,79,0.0,0.0,98,0.00,,,0.00,WeatherCatV1.20B785,2013-08-23 13:46:00,
2013-08-23 09:51:00,66.7,66.1,30.04,East,80,0.0,0.0,98,0.00,,,0.00,WeatherCatV1.20B785,2013-08-23 13:51:00,
2013-08-23 09:56:00,67.0,66.4,30.05,ESE,115,0.0,0.0,98,0.00,,,0.00,WeatherCatV1.20B785,2013-08-23 13:56:00,
2013-08-23 10:01:00,67.2,66.3,30.05,ESE,115,0.0,0.0,97,0.00,,,0.00,WeatherCatV1.20B785,2013-08-23 14:01:00,
2013-08-23 10:06:00,67.5,66.6,30.05,ESE,113,0.0,0.0,97,0.00,,,0.00,WeatherCatV1.20B785,2013-08-23 14:06:00,
2013-08-23 10:11:00,68.0,66.8,30.05,East,82,0.0,1.0,96,0.00,,,0.00,WeatherCatV1.20B785,2013-08-23 14:11:00,
2013-08-23 10:16:00,68.4,66.9,30.05,East,82,0.0,0.0,95,0.00,,,0.00,WeatherCatV1.20B785,2013-08-23 14:16:00,
2013-08-23 10:21:00,68.8,67.3,30.05,ENE,62,0.0,0.0,95,0.00,,,0.00,WeatherCatV1.20B785,2013-08-23 14:21:00,
2013-08-23 10:26:00,69.3,67.5,30.05,ESE,121,0.0,2.0,94,0.00,,,0.00,WeatherCatV1.20B785,2013-08-23 14:26:00,
2013-08-23 10:31:00,69.6,67.8,30.06,ESE,121,0.0,0.0,94,0.00,,,0.00,WeatherCatV1.20B785,2013-08-23 14:31:00,
2013-08-23 10:36:00,70.0,68.2,30.06,ESE,105,0.0,0.0,94,0.00,,,0.00,WeatherCatV1.20B785,2013-08-23 14:36:00,
2013-08-23 10:41:00,70.4,68.3,30.05,East,79,0.0,1.0,93,0.00,,,0.00,WeatherCatV1.20B785,2013-08-23 14:41:00,
2013-08-23 10:46:00,70.9,68.8,30.05,ENE,67,0.0,1.0,93,0.00,,,0.00,WeatherCatV1.20B785,2013-08-23 14:46:00,
2013-08-23 10:51:00,71.3,68.8,30.05,East,93,0.0,0.0,92,0.00,,,0.00,WeatherCatV1.20B785,2013-08-23 14:51:00,
2013-08-23 10:56:00,71.8,69.0,30.05,ESE,108,0.0,2.0,91,0.00,,,0.00,WeatherCatV1.20B785,2013-08-23 14:56:00,
2013-08-23 11:01:00,72.2,68.8,30.05,SE,131,0.0,2.0,89,0.00,,,0.00,WeatherCatV1.20B785,2013-08-23 15:01:00,
2013-08-23 11:06:00,72.7,69.3,30.05,SE,143,1.0,2.0,89,0.00,,,0.00,WeatherCatV1.20B785,2013-08-23 15:06:00,
2013-08-23 11:11:00,73.2,68.8,30.05,NE,53,0.0,2.0,86,0.00,,,0.00,WeatherCatV1.20B785,2013-08-23 15:11:00,
2013-08-23 11:16:00,73.5,68.7,30.05,East,79,0.0,6.0,85,0.00,,,0.00,WeatherCatV1.20B785,2013-08-23 15:16:00,
2013-08-23 11:21:00,73.8,69.0,30.05,ESE,110,0.0,4.0,85,0.00,,,0.00,WeatherCatV1.20B785,2013-08-23 15:21:00,
2013-08-23 11:26:00,74.2,69.0,30.05,ENE,65,0.0,3.0,84,0.00,,,0.00,WeatherCatV1.20B785,2013-08-23 15:26:00,
2013-08-23 11:31:00,74.2,68.7,30.05,WSW,256,0.0,2.0,83,0.00,,,0.00,WeatherCatV1.20B785,2013-08-23 15:31:00,
2013-08-23 11:36:00,74.5,69.3,30.05,NE,50,2.0,4.0,84,0.00,,,0.00,WeatherCatV1.20B785,2013-08-23 15:36:00,
2013-08-23 11:41:00,74.7,68.8,30.05,North,356,0.0,2.0,82,0.00,,,0.00,WeatherCatV1.20B785,2013-08-23 15:41:00,
2013-08-23 11:46:00,75.0,69.5,30.05,NE,56,0.0,0.0,83,0.00,,,0.00,WeatherCatV1.20B785,2013-08-23 15:46:00,
2013-08-23 11:51:00,75.3,69.4,30.05,East,87,0.0,0.0,82,0.00,,,0.00,WeatherCatV1.20B785,2013-08-23 15:51:00,
2013-08-23 11:56:00,75.4,69.2,30.05,ESE,123,0.0,3.0,81,0.00,,,0.00,WeatherCatV1.20B785,2013-08-23 15:56:00,
2013-08-23 12:01:00,75.6,68.6,30.04,SE,127,0.0,2.0,79,0.00,,,0.00,WeatherCatV1.20B785,2013-08-23 16:01:00,
2013-08-23 12:06:00,75.8,68.4,30.04,East,98,1.0,3.0,78,0.00,,,0.00,WeatherCatV1.20B785,2013-08-23 16:06:00,
2013-08-23 12:11:00,75.9,67.8,30.04,ESE,120,0.0,2.0,76,0.00,,,0.00,WeatherCatV1.20B785,2013-08-23 16:11:00,
2013-08-23 12:16:00,76.2,67.7,30.04,ESE,117,0.0,2.0,75,0.00,,,0.00,WeatherCatV1.20B785,2013-08-23 16:16:00,
2013-08-23 12:22:00,76.6,68.4,30.04,NE,52,0.0,1.0,76,0.00,,,0.00,WeatherCatV1.20B785,2013-08-23 16:22:00,
2013-08-23 12:27:00,76.5,67.6,30.04,SE,146,1.0,3.0,74,0.00,,,0.00,WeatherCatV1.20B785,2013-08-23 16:27:00,
2013-08-23 12:32:00,76.8,67.1,30.04,SSE,148,0.0,2.0,72,0.00,,,0.00,WeatherCatV1.20B785,2013-08-23 16:32:00,
2013-08-23 12:37:00,76.7,66.6,30.03,SE,140,0.0,2.0,71,0.00,,,0.00,WeatherCatV1.20B785,2013-08-23 16:37:00,
2013-08-23 12:42:00,77.3,67.9,30.03,NE,53,0.0,1.0,73,0.00,,,0.00,WeatherCatV1.20B785,2013-08-23 16:42:00,
2013-08-23 12:47:00,77.9,67.7,30.03,East,89,0.0,1.0,71,0.00,,,0.00,WeatherCatV1.20B785,2013-08-23 16:47:00,
2013-08-23 12:52:00,78.1,67.5,30.03,ESE,115,0.0,1.0,70,0.00,,,0.00,WeatherCatV1.20B785,2013-08-23 16:52:00,
2013-08-23 12:57:00,78.6,68.4,30.03,WSW,243,0.0,4.0,71,0.00,,,0.00,WeatherCatV1.20B785,2013-08-23 16:57:00,
2013-08-23 13:02:00,78.3,68.5,30.03,ENE,73,0.0,3.0,72,0.00,,,0.00,WeatherCatV1.20B785,2013-08-23 17:02:00,
2013-08-23 13:07:00,78.6,67.1,30.03,South,175,1.0,2.0,68,0.00,,,0.00,WeatherCatV1.20B785,2013-08-23 17:07:00,
2013-08-23 13:12:00,79.0,66.2,30.02,SW,218,0.0,3.0,65,0.00,,,0.00,WeatherCatV1.20B785,2013-08-23 17:12:00,
2013-08-23 13:17:00,79.7,67.3,30.02,ENE,75,0.0,1.0,66,0.00,,,0.00,WeatherCatV1.20B785,2013-08-23 17:17:00,
2013-08-23 13:22:00,80.5,67.2,30.02,NE,35,0.0,0.0,64,0.00,,,0.00,WeatherCatV1.20B785,2013-08-23 17:22:00,
2013-08-23 13:27:00,81.0,68.1,30.02,ENE,65,2.0,5.0,65,0.00,,,0.00,WeatherCatV1.20B785,2013-08-23 17:27:00,
2013-08-23 13:32:00,80.3,68.3,30.02,SE,136,1.0,1.0,67,0.00,,,0.00,WeatherCatV1.20B785,2013-08-23 17:32:00,
2013-08-23 13:37:00,80.5,67.2,30.01,East,95,0.0,4.0,64,0.00,,,0.00,WeatherCatV1.20B785,2013-08-23 17:37:00,
2013-08-23 13:42:00,81.2,67.8,30.01,East,87,0.0,6.0,64,0.00,,,0.00,WeatherCatV1.20B785,2013-08-23 17:42:00,
2013-08-23 13:47:00,81.7,68.8,30.01,SSE,153,2.0,3.0,65,0.00,,,0.00,WeatherCatV1.20B785,2013-08-23 17:47:00,
2013-08-23 13:52:00,81.7,68.3,30.01,East,92,0.0,2.0,64,0.00,,,0.00,WeatherCatV1.20B785,2013-08-23 17:52:00,
2013-08-23 13:57:00,81.6,69.1,30.00,East,91,0.0,3.0,66,0.00,,,0.00,WeatherCatV1.20B785,2013-08-23 17:57:00,
2013-08-23 14:02:00,81.7,69.2,30.01,SSE,147,1.0,4.0,66,0.00,,,0.00,WeatherCatV1.20B785,2013-08-23 18:02:00,
2013-08-23 14:07:00,80.9,68.9,30.00,ENE,71,0.0,1.0,67,0.00,,,0.00,WeatherCatV1.20B785,2013-08-23 18:07:00,
2013-08-23 14:12:00,80.3,68.3,30.01,East,97,0.0,2.0,67,0.00,,,0.00,WeatherCatV1.20B785,2013-08-23 18:12:00,
2013-08-23 14:17:00,80.0,67.6,30.00,SSW,208,0.0,5.0,66,0.00,,,0.00,WeatherCatV1.20B785,2013-08-23 18:17:00,
2013-08-23 14:22:00,80.2,67.8,30.00,SE,124,0.0,2.0,66,0.00,,,0.00,WeatherCatV1.20B785,2013-08-23 18:22:00,
2013-08-23 14:27:00,81.0,68.5,30.00,ESE,105,0.0,0.0,66,0.00,,,0.00,WeatherCatV1.20B785,2013-08-23 18:27:00,
2013-08-23 14:32:00,82.1,69.6,30.00,East,93,0.0,1.0,66,0.00,,,0.00,WeatherCatV1.20B785,2013-08-23 18:32:00,
2013-08-23 14:37:00,82.8,69.3,29.99,NE,54,1.0,6.0,64,0.00,,,0.00,WeatherCatV1.20B785,2013-08-23 18:37:00,
2013-08-23 14:42:00,82.6,69.2,29.99,ESE,120,0.0,3.0,64,0.00,,,0.00,WeatherCatV1.20B785,2013-08-23 18:42:00,
2013-08-23 14:47:00,82.1,68.2,29.99,SE,131,1.0,2.0,63,0.00,,,0.00,WeatherCatV1.20B785,2013-08-23 18:47:00,
2013-08-23 14:52:00,82.5,68.6,29.99,NNE,30,0.0,4.0,63,0.00,,,0.00,WeatherCatV1.20B785,2013-08-23 18:52:00,
2013-08-23 14:57:00,82.5,68.6,29.99,NE,45,0.0,6.0,63,0.00,,,0.00,WeatherCatV1.20B785,2013-08-23 18:57:00,
2013-08-23 15:02:00,81.1,68.6,29.99,NE,52,0.0,4.0,66,0.00,,,0.00,WeatherCatV1.20B785,2013-08-23 19:02:00,
2013-08-23 15:07:00,80.2,68.7,29.98,East,89,0.0,0.0,68,0.00,,,0.00,WeatherCatV1.20B785,2013-08-23 19:07:00,
2013-08-23 15:12:00,79.6,68.9,29.98,SSE,147,0.0,2.0,70,0.00,,,0.00,WeatherCatV1.20B785,2013-08-23 19:12:00,
2013-08-23 15:17:00,80.2,69.1,29.99,SW,218,3.0,6.0,69,0.00,,,0.00,WeatherCatV1.20B785,2013-08-23 19:17:00,
2013-08-23 15:22:00,80.3,67.9,29.98,South,176,2.0,3.0,66,0.00,,,0.00,WeatherCatV1.20B785,2013-08-23 19:22:00,
2013-08-23 15:27:00,80.3,68.8,29.98,ENE,65,0.0,2.0,68,0.00,,,0.00,WeatherCatV1.20B785,2013-08-23 19:27:00,
2013-08-23 15:32:00,81.3,69.7,29.98,SE,129,1.0,2.0,68,0.00,,,0.00,WeatherCatV1.20B785,2013-08-23 19:32:00,
2013-08-23 15:37:00,82.2,68.8,29.98,SW,216,2.0,3.0,64,0.00,,,0.00,WeatherCatV1.20B785,2013-08-23 19:37:00,
2013-08-23 15:42:00,81.6,69.1,29.98,NE,51,0.0,2.0,66,0.00,,,0.00,WeatherCatV1.20B785,2013-08-23 19:42:00,
2013-08-23 15:47:00,81.8,69.3,29.98,WNW,290,6.0,6.0,66,0.00,,,0.00,WeatherCatV1.20B785,2013-08-23 19:47:00,
2013-08-23 15:52:00,81.0,69.0,29.98,SE,136,1.0,5.0,67,0.00,,,0.00,WeatherCatV1.20B785,2013-08-23 19:52:00,
2013-08-23 15:57:00,80.4,69.7,29.97,ENE,77,0.0,1.0,70,0.00,,,0.00,WeatherCatV1.20B785,2013-08-23 19:57:00,
2013-08-23 16:02:00,80.9,70.6,29.97,East,89,0.0,3.0,71,0.00,,,0.00,WeatherCatV1.20B785,2013-08-23 20:02:00,
2013-08-23 16:07:00,80.7,68.7,29.97,SW,227,2.0,2.0,67,0.00,,,0.00,WeatherCatV1.20B785,2013-08-23 20:07:00,
2013-08-23 16:12:00,80.2,68.2,29.97,East,88,1.0,5.0,67,0.00,,,0.00,WeatherCatV1.20B785,2013-08-23 20:12:00,
2013-08-23 16:17:00,80.2,67.8,29.97,SSE,158,1.0,2.0,66,0.00,,,0.00,WeatherCatV1.20B785,2013-08-23 20:17:00,
2013-08-23 16:22:00,80.8,67.9,29.97,SE,138,0.0,3.0,65,0.00,,,0.00,WeatherCatV1.20B785,2013-08-23 20:22:00,
2013-08-23 16:27:00,81.3,67.9,29.97,NE,44,2.0,2.0,64,0.00,,,0.00,WeatherCatV1.20B785,2013-08-23 20:27:00,
2013-08-23 16:32:00,81.3,68.4,29.97,SE,139,2.0,2.0,65,0.00,,,0.00,WeatherCatV1.20B785,2013-08-23 20:32:00,
2013-08-23 16:37:00,81.7,69.2,29.97,ENE,70,0.0,3.0,66,0.00,,,0.00,WeatherCatV1.20B785,2013-08-23 20:37:00,
2013-08-23 16:42:00,81.9,68.9,29.96,NE,39,0.0,4.0,65,0.00,,,0.00,WeatherCatV1.20B785,2013-08-23 20:42:00,
2013-08-23 16:47:00,81.6,68.7,29.96,SE,143,1.0,2.0,65,0.00,,,0.00,WeatherCatV1.20B785,2013-08-23 20:47:00,
2013-08-23 16:52:00,81.0,68.5,29.96,SE,130,0.0,3.0,66,0.00,,,0.00,WeatherCatV1.20B785,2013-08-23 20:52:00,
2013-08-23 16:57:00,80.6,69.5,29.96,SE,129,0.0,2.0,69,0.00,,,0.00,WeatherCatV1.20B785,2013-08-23 20:57:00,
2013-08-23 17:02:00,80.1,69.0,29.96,SSW,212,3.0,3.0,69,0.00,,,0.00,WeatherCatV1.20B785,2013-08-23 21:02:00,
2013-08-23 17:07:00,79.8,68.7,29.96,ESE,122,0.0,3.0,69,0.00,,,0.00,WeatherCatV1.20B785,2013-08-23 21:07:00,
2013-08-23 17:12:00,79.8,69.1,29.97,ESE,108,0.0,2.0,70,0.00,,,0.00,WeatherCatV1.20B785,2013-08-23 21:12:00,
2013-08-23 17:17:00,79.7,68.6,29.97,East,80,0.0,2.0,69,0.00,,,0.00,WeatherCatV1.20B785,2013-08-23 21:17:00,
2013-08-23 17:22:00,79.3,69.5,29.97,East,88,0.0,1.0,72,0.00,,,0.00,WeatherCatV1.20B785,2013-08-23 21:22:00,
2013-08-23 17:27:00,78.9,69.1,29.97,SE,128,1.0,2.0,72,0.00,,,0.00,WeatherCatV1.20B785,2013-08-23 21:27:00,
2013-08-23 17:32:00,78.1,68.7,29.98,ESE,114,0.0,0.0,73,0.00,,,0.00,WeatherCatV1.20B785,2013-08-23 21:32:00,
2013-08-23 17:37:00,77.7,68.7,29.98,SE,131,0.0,0.0,74,0.00,,,0.00,WeatherCatV1.20B785,2013-08-23 21:37:00,
2013-08-23 17:42:00,77.5,69.3,29.98,ENE,70,0.0,0.0,76,0.00,,,0.00,WeatherCatV1.20B785,2013-08-23 21:42:00,
2013-08-23 17:47:00,77.2,69.0,29.98,ENE,73,0.0,0.0,76,0.00,,,0.00,WeatherCatV1.20B785,2013-08-23 21:47:00,
2013-08-23 17:52:00,76.7,69.3,29.98,ENE,73,0.0,0.0,78,0.00,,,0.00,WeatherCatV1.20B785,2013-08-23 21:52:00,
2013-08-23 17:57:00,76.1,68.0,29.98,ENE,74,0.0,0.0,76,0.00,,,0.00,WeatherCatV1.20B785,2013-08-23 21:57:00,
2013-08-23 18:02:00,75.8,68.1,29.98,ENE,74,0.0,0.0,77,0.00,,,0.00,WeatherCatV1.20B785,2013-08-23 22:02:00,
2013-08-23 18:07:00,75.6,67.5,29.98,ESE,102,0.0,0.0,76,0.00,,,0.00,WeatherCatV1.20B785,2013-08-23 22:07:00,
2013-08-23 18:12:00,75.3,67.6,29.98,ESE,102,0.0,0.0,77,0.00,,,0.00,WeatherCatV1.20B785,2013-08-23 22:12:00,
2013-08-23 18:17:00,75.1,67.8,29.98,East,101,0.0,0.0,78,0.00,,,0.00,WeatherCatV1.20B785,2013-08-23 22:17:00,
2013-08-23 18:22:00,74.8,67.8,29.98,East,101,0.0,0.0,79,0.00,,,0.00,WeatherCatV1.20B785,2013-08-23 22:22:00,
2013-08-23 18:27:00,74.5,67.5,29.98,East,101,0.0,0.0,79,0.00,,,0.00,WeatherCatV1.20B785,2013-08-23 22:27:00,
2013-08-23 18:32:00,74.4,68.2,29.98,East,101,0.0,0.0,81,0.00,,,0.00,WeatherCatV1.20B785,2013-08-23 22:32:00,
2013-08-23 18:37:00,74.1,68.2,29.98,ESE,102,0.0,0.0,82,0.00,,,0.00,WeatherCatV1.20B785,2013-08-23 22:37:00,
2013-08-23 18:42:00,73.9,68.1,29.98,East,101,0.0,0.0,82,0.00,,,0.00,WeatherCatV1.20B785,2013-08-23 22:42:00,
2013-08-23 18:47:00,73.6,67.8,29.99,East,101,0.0,0.0,82,0.00,,,0.00,WeatherCatV1.20B785,2013-08-23 22:47:00,
2013-08-23 18:52:00,73.6,67.8,29.99,East,101,0.0,0.0,82,0.00,,,0.00,WeatherCatV1.20B785,2013-08-23 22:52:00,
2013-08-23 18:57:00,73.4,67.6,30.00,East,101,0.0,0.0,82,0.00,,,0.00,WeatherCatV1.20B785,2013-08-23 22:57:00,
2013-08-23 19:02:00,73.3,67.8,30.00,East,101,0.0,0.0,83,0.00,,,0.00,WeatherCatV1.20B785,2013-08-23 23:02:00,
2013-08-23 19:07:00,73.2,68.1,30.00,East,101,0.0,0.0,84,0.00,,,0.00,WeatherCatV1.20B785,2013-08-23 23:07:00,
2013-08-23 19:12:00,72.9,68.1,30.00,East,101,0.0,0.0,85,0.00,,,0.00,WeatherCatV1.20B785,2013-08-23 23:12:00,
2013-08-23 19:17:00,72.9,67.8,30.00,East,101,0.0,0.0,84,0.00,,,0.00,WeatherCatV1.20B785,2013-08-23 23:17:00,
2013-08-23 19:22:00,73.0,67.9,30.00,East,101,0.0,0.0,84,0.00,,,0.00,WeatherCatV1.20B785,2013-08-23 23:22:00,
2013-08-23 19:27:00,72.8,67.7,30.00,East,101,0.0,0.0,84,0.00,,,0.00,WeatherCatV1.20B785,2013-08-23 23:27:00,
2013-08-23 19:32:00,72.7,67.9,30.00,East,101,0.0,0.0,85,0.00,,,0.00,WeatherCatV1.20B785,2013-08-23 23:32:00,
2013-08-23 19:37:00,72.4,68.0,30.00,East,101,0.0,0.0,86,0.00,,,0.00,WeatherCatV1.20B785,2013-08-23 23:37:00,
2013-08-23 19:42:00,72.0,67.2,30.01,East,101,0.0,0.0,85,0.00,,,0.00,WeatherCatV1.20B785,2013-08-23 23:42:00,
2013-08-23 19:47:00,71.8,67.4,30.01,East,101,0.0,0.0,86,0.00,,,0.00,WeatherCatV1.20B785,2013-08-23 23:47:00,
2013-08-23 19:52:00,71.6,67.5,30.01,East,101,0.0,0.0,87,0.00,,,0.00,WeatherCatV1.20B785,2013-08-23 23:52:00,
2013-08-23 19:57:00,71.3,67.6,30.00,East,101,0.0,0.0,88,0.00,,,0.00,WeatherCatV1.20B785,2013-08-23 23:57:00,
2013-08-23 20:02:00,71.0,67.6,30.00,East,101,0.0,0.0,89,0.00,,,0.00,WeatherCatV1.20B785,2013-08-24 00:02:00,
2013-08-23 20:07:00,70.7,67.3,30.00,East,101,0.0,0.0,89,0.00,,,0.00,WeatherCatV1.20B785,2013-08-24 00:07:00,
2013-08-23 20:12:00,70.3,66.9,30.01,East,101,0.0,0.0,89,0.00,,,0.00,WeatherCatV1.20B785,2013-08-24 00:12:00,
2013-08-23 20:17:00,70.1,67.0,30.01,East,101,0.0,0.0,90,0.00,,,0.00,WeatherCatV1.20B785,2013-08-24 00:17:00,
2013-08-23 20:22:00,69.9,67.2,30.02,East,101,0.0,0.0,91,0.00,,,0.00,WeatherCatV1.20B785,2013-08-24 00:22:00,
2013-08-23 20:27:00,69.8,66.7,30.02,East,101,0.0,0.0,90,0.00,,,0.00,WeatherCatV1.20B785,2013-08-24 00:27:00,
2013-08-23 20:32:00,69.7,66.9,30.02,East,101,0.0,0.0,91,0.00,,,0.00,WeatherCatV1.20B785,2013-08-24 00:32:00,
2013-08-23 20:37:00,69.6,66.5,30.02,East,101,0.0,0.0,90,0.00,,,0.00,WeatherCatV1.20B785,2013-08-24 00:37:00,
2013-08-23 20:42:00,69.6,66.8,30.03,East,101,0.0,0.0,91,0.00,,,0.00,WeatherCatV1.20B785,2013-08-24 00:42:00,
2013-08-23 20:47:00,69.5,66.8,30.02,East,101,0.0,0.0,91,0.00,,,0.00,WeatherCatV1.20B785,2013-08-24 00:47:00,
2013-08-23 20:52:00,69.5,66.8,30.03,East,101,0.0,0.0,91,0.00,,,0.00,WeatherCatV1.20B785,2013-08-24 00:52:00,
2013-08-23 20:57:00,69.4,66.7,30.03,East,101,0.0,0.0,91,0.00,,,0.00,WeatherCatV1.20B785,2013-08-24 00:57:00,
2013-08-23 21:02:00,69.4,66.7,30.03,East,101,0.0,0.0,91,0.00,,,0.00,WeatherCatV1.20B785,2013-08-24 01:02:00,
2013-08-23 21:07:00,69.3,66.6,30.03,East,101,0.0,0.0,91,0.00,,,0.00,WeatherCatV1.20B785,2013-08-24 01:07:00,
2013-08-23 21:12:00,69.1,66.4,30.03,East,101,0.0,0.0,91,0.00,,,0.00,WeatherCatV1.20B785,2013-08-24 01:12:00,
2013-08-23 21:17:00,68.9,66.5,30.03,East,101,0.0,0.0,92,0.00,,,0.00,WeatherCatV1.20B785,2013-08-24 01:17:00,
2013-08-23 21:22:00,68.7,66.3,30.04,East,101,0.0,0.0,92,0.00,,,0.00,WeatherCatV1.20B785,2013-08-24 01:22:00,
2013-08-23 21:27:00,68.5,66.1,30.04,East,101,0.0,0.0,92,0.00,,,0.00,WeatherCatV1.20B785,2013-08-24 01:27:00,
2013-08-23 21:32:00,68.4,66.0,30.04,East,101,0.0,0.0,92,0.00,,,0.00,WeatherCatV1.20B785,2013-08-24 01:32:00,
2013-08-23 21:37:00,68.2,66.1,30.04,East,101,0.0,0.0,93,0.00,,,0.00,WeatherCatV1.20B785,2013-08-24 01:37:00,
2013-08-23 21:42:00,68.1,66.0,30.04,East,101,0.0,0.0,93,0.00,,,0.00,WeatherCatV1.20B785,2013-08-24 01:42:00,
2013-08-23 21:47:00,67.9,65.8,30.04,East,101,0.0,0.0,93,0.00,,,0.00,WeatherCatV1.20B785,2013-08-24 01:47:00,
2013-08-23 21:52:00,67.8,66.0,30.04,East,101,0.0,0.0,94,0.00,,,0.00,WeatherCatV1.20B785,2013-08-24 01:52:00,
2013-08-23 21:57:00,67.7,65.9,30.04,East,101,0.0,0.0,94,0.00,,,0.00,WeatherCatV1.20B785,2013-08-24 01:57:00,
2013-08-23 22:02:00,67.6,66.1,30.04,East,101,0.0,0.0,95,0.00,,,0.00,WeatherCatV1.20B785,2013-08-24 02:02:00,
2013-08-23 22:07:00,67.5,66.0,30.04,East,101,0.0,0.0,95,0.00,,,0.00,WeatherCatV1.20B785,2013-08-24 02:07:00,
2013-08-23 22:12:00,67.6,66.1,30.04,East,101,0.0,0.0,95,0.00,,,0.00,WeatherCatV1.20B785,2013-08-24 02:12:00,
2013-08-23 22:17:00,67.4,65.9,30.04,East,101,0.0,0.0,95,0.00,,,0.00,WeatherCatV1.20B785,2013-08-24 02:17:00,
2013-08-23 22:22:00,67.3,65.8,30.04,East,101,0.0,0.0,95,0.00,,,0.00,WeatherCatV1.20B785,2013-08-24 02:22:00,
2013-08-23 22:27:00,67.2,65.7,30.04,East,101,0.0,0.0,95,0.00,,,0.00,WeatherCatV1.20B785,2013-08-24 02:27:00,
2013-08-23 22:32:00,67.1,65.6,30.04,East,101,0.0,0.0,95,0.00,,,0.00,WeatherCatV1.20B785,2013-08-24 02:32:00,
2013-08-23 22:37:00,67.1,65.9,30.04,East,101,0.0,0.0,96,0.00,,,0.00,WeatherCatV1.20B785,2013-08-24 02:37:00,
2013-08-23 22:42:00,67.0,65.8,30.04,East,101,0.0,0.0,96,0.00,,,0.00,WeatherCatV1.20B785,2013-08-24 02:42:00,
2013-08-23 22:47:00,66.9,65.7,30.04,East,101,0.0,0.0,96,0.00,,,0.00,WeatherCatV1.20B785,2013-08-24 02:47:00,
2013-08-23 22:52:00,66.9,65.7,30.05,East,101,0.0,0.0,96,0.00,,,0.00,WeatherCatV1.20B785,2013-08-24 02:52:00,
2013-08-23 22:57:00,66.9,65.7,30.05,East,101,0.0,0.0,96,0.00,,,0.00,WeatherCatV1.20B785,2013-08-24 02:57:00,
2013-08-23 23:02:00,66.8,65.6,30.05,East,101,0.0,0.0,96,0.00,,,0.00,WeatherCatV1.20B785,2013-08-24 03:02:00,
2013-08-23 23:07:00,66.9,66.0,30.05,East,101,0.0,0.0,97,0.00,,,0.00,WeatherCatV1.20B785,2013-08-24 03:07:00,
2013-08-23 23:12:00,66.9,66.0,30.05,East,101,0.0,0.0,97,0.00,,,0.00,WeatherCatV1.20B785,2013-08-24 03:12:00,
2013-08-23 23:17:00,66.9,66.0,30.05,East,101,0.0,0.0,97,0.00,,,0.00,WeatherCatV1.20B785,2013-08-24 03:17:00,
2013-08-23 23:22:00,66.9,66.0,30.05,East,101,0.0,0.0,97,0.00,,,0.00,WeatherCatV1.20B785,2013-08-24 03:22:00,
2013-08-23 23:27:00,67.0,66.1,30.05,East,101,0.0,0.0,97,0.00,,,0.00,WeatherCatV1.20B785,2013-08-24 03:27:00,
2013-08-23 23:32:00,67.1,66.2,30.06,East,101,0.0,0.0,97,0.00,,,0.00,WeatherCatV1.20B785,2013-08-24 03:32:00,
2013-08-23 23:37:00,67.1,66.2,30.06,East,91,0.0,0.0,97,0.00,,,0.00,WeatherCatV1.20B785,2013-08-24 03:37:00,
2013-08-23 23:42:00,67.1,66.2,30.06,East,88,0.0,0.0,97,0.00,,,0.00,WeatherCatV1.20B785,2013-08-24 03:42:00,
2013-08-23 23:47:00,67.0,65.8,30.06,East,88,0.0,0.0,96,0.00,,,0.00,WeatherCatV1.20B785,2013-08-24 03:47:00,
2013-08-23 23:52:00,66.9,65.7,30.06,East,88,0.0,0.0,96,0.00,,,0.00,WeatherCatV1.20B785,2013-08-24 03:52:00,
2013-08-23 23:57:00,66.8,65.6,30.07,East,88,0.0,0.0,96,0.00,,,0.00,WeatherCatV1.20B785,2013-08-24 03:57:00,